Flag for Austria Weather past 2 weeks in Linz, Upper Austria, Austria

Now
77 °F

Sunny.


Feels Like: 79 °F
Forecast: 60 / 92 °F
Wind: 2 mph from North

Location: Linz / Hoersching-Flughafen

Current Time: Aug 30, 2015 at 10:42:47 AM

Latest Report: Aug 30, 2015 at 9:50 AM


Visibility: 10 mi

Pressure: 30.12 "Hg

Humidity: 57%

Dew point: 61 °F

Location of LinzLocation

Historic Weather in Linz — Graph

°F

Linz temperature yesterday

Maximum temperature yesterday: 91 °F (at 3:50 PM)
Minimum temperature yesterday: 63 °F (at 6:20 AM)
Average temperature yesterday: 78 °F

Past Weeks' High & Low Weather Summary

 TemperatureHumidityPressure
High91 °F (Aug 29, 3:50 PM)100% (Aug 20, 9:20 PM)30.27 "Hg (Aug 20, 9:20 PM)
Low45 °F (Aug 26, 6:20 AM)16% (Aug 26, 4:20 PM)29.71 "Hg (Aug 24, 5:50 PM)
Average68 °F66%30.01 "Hg
* Reported Aug 15 9:20 AM — Aug 30 9:20 AM, Linz, Weather by CustomWeather, © 2015

Note: Actual official high and low records may vary slightly from our data, if they occured in-between our weather recording intervals... More about our weather records

Advertising

Linz weather history for previous 24 hours

 ConditionsComfort  
Time TempWeatherWind HumidityBarometerVisibility
9:20 AM
Sun, Aug 30
75 °FPassing clouds.3 mph61%30.12 "HgN/A
8:50 AM73 °FPassing clouds.3 mph65%30.12 "HgN/A
8:20 AM70 °FSunny.1 mph73%30.12 "Hg10 mi
7:50 AM66 °FSunny.1 mph83%30.12 "Hg10 mi
7:20 AM64 °FSunny.2 mph83%30.12 "Hg10 mi
6:50 AM63 °FClear.1 mph88%30.12 "Hg10 mi
6:20 AM63 °FClear.2 mph88%30.09 "Hg10 mi
5:50 AM63 °FClear.1 mph83%30.09 "Hg10 mi
5:20 AM64 °FClear.2 mph88%30.09 "Hg10 mi
4:50 AM64 °FClear.No wind83%30.09 "Hg10 mi
4:20 AM66 °FClear.3 mph83%30.09 "Hg10 mi
3:50 AM68 °FClear.2 mph73%30.09 "Hg10 mi
3:20 AM70 °FMild.3 mph73%30.09 "HgN/A
2:50 AM72 °FMild.5 mph69%30.09 "HgN/A
2:20 AM73 °FMild.6 mph65%30.09 "HgN/A
1:50 AM75 °FMild.7 mph61%30.09 "HgN/A
1:20 AM75 °FMild.8 mph61%30.09 "HgN/A
12:50 AM75 °FMild.9 mph61%30.09 "HgN/A
12:20 AM75 °FMild.8 mph65%30.12 "HgN/A
11:50 PM
Sat, Aug 29
75 °FMild.6 mph65%30.12 "HgN/A
10:50 PM77 °FClear.3 mph65%30.12 "Hg10 mi
10:20 PM77 °FClear.5 mph65%30.12 "Hg10 mi
9:50 PM79 °FClear.6 mph61%30.12 "Hg10 mi
9:20 PM81 °FClear.6 mph58%30.12 "Hg10 mi
8:50 PM82 °FSunny.3 mph51%30.12 "Hg10 mi
8:20 PM84 °FSunny.7 mph48%30.12 "Hg10 mi
7:50 PM86 °FSunny.8 mph49%30.12 "Hg10 mi
7:20 PM88 °FPassing clouds.6 mph46%30.12 "HgN/A
6:50 PM90 °FPassing clouds.6 mph41%30.12 "HgN/A
6:20 PM90 °FPassing clouds.8 mph36%30.12 "HgN/A
5:50 PM91 °FPassing clouds.8 mph34%30.12 "HgN/A
5:20 PM91 °FPassing clouds.6 mph32%30.12 "HgN/A
4:50 PM91 °FPassing clouds.7 mph32%30.12 "HgN/A
4:20 PM91 °FPassing clouds.7 mph32%30.15 "HgN/A
3:50 PM91 °FPassing clouds.6 mph32%30.15 "HgN/A
3:20 PM90 °FPassing clouds.6 mph36%30.15 "HgN/A
2:50 PM90 °FPassing clouds.7 mph36%30.18 "HgN/A
2:20 PM90 °FPassing clouds.7 mph36%30.18 "HgN/A
1:50 PM88 °FPassing clouds.7 mph38%30.21 "HgN/A
1:20 PM86 °FPassing clouds.5 mph43%30.21 "HgN/A
12:50 PM86 °FPassing clouds.6 mph43%30.21 "HgN/A
11:50 AM82 °FSunny.6 mph45%30.24 "Hg10 mi
11:20 AM82 °FPassing clouds.8 mph48%30.24 "HgN/A
10:50 AM81 °FPassing clouds.7 mph48%30.24 "HgN/A
Weather by CustomWeather, © 2015

See weather overviewHow to use our weather pages